Find Starlink 6223

NORAD ID: 57057 Int'l Des: 2023-088 Owner: SPXS Country: US Constellation: starlink operational
LEOCIRCULAR

当前视图

正在加载3D地球...

About Starlink 6223

Starlink 6223 (NORAD 57057) is a starlink constellation satellite (v1.5) launched Jun 22, 2023 by SPXS of US. It operates in LEO, CIRCULAR orbit with a mass of 305.00 kg.

即将过境

Passes for default location (London). Set your location on the main map for personalized predictions.

高度历史

Loading altitude history...

两行轨道根数

1 57057U 23088K 26235.74271421 .00000067 00000-0 11963-4 0 9998
2 57057 43.0021 246.9870 0000976 275.1256 84.9485 15.27573091175889
Epoch: Aug 23, 2026 • Age: 14 hours

当前状态

高度 488.6 km
远地点 / 近地点 N/A
速度 7.62 km/s
星下点 -24.59°S, 125.09°E
发射日期 Jun 22, 2023
运行时间 3.1 years
类型 internet

技术详情

分类 Payload
质量 305.00 kg
干质量 290.00 kg
总质量 305.00 kg
长度 0.20 m
直径 2.80 m
跨度 9.00 m
形状 Box + pan
制造商 SPXS
平台类型 Starlink
阶段状态 In Orbit
所有者/国家 SPXS/US

Most Searched